{"data":{"norad_id":55970,"intl_designator":"2023-038A","name":"SES-18","alt_names":[],"object_type":"PAYLOAD","status":"ACTIVE","operator":null,"country":"SES","launch_date":"2023-03-17","launch_site_code":"AFETR","launch_vehicle":null,"mission":null,"orbit_class":"UNKNOWN","rcs_meters":null,"size_class":null,"mass_kg":null,"dimensions":null,"purposes":["comms"],"wikipedia_slug":null,"has_3d_model":false,"image_url":null,"decayed_at":null,"tle_current":{"epoch":"2026-05-24T22:07:14.656224Z","epoch_age_seconds":77961,"freshness":"FRESH","line1":"1 55970U 23038A   26144.92169741 -.00000104  00000+0  00000+0 0  9992","line2":"2 55970   0.0167 315.2048 0001105  23.1363 132.9008  1.00272158 11876","mean_motion":1.00272158,"eccentricity":0.0001105,"inclination_deg":0.0167,"raan_deg":315.2048,"arg_perigee_deg":23.1363,"mean_anomaly_deg":132.9008,"bstar":0,"rev_number":1187,"period_min":1436.0915619269,"perigee_km":35781.831204747,"apogee_km":35791.149587402,"semimajor_km":42164.627396075,"source":"CELESTRAK","updated_at":"2026-05-25T13:38:14.518418Z"}}}